EW3533 Weather Reports


Display with metric or nautical units.
time (UTC)temp
F
wind
direction
speed
MPH
gust
MPH
rain 1hr
in
rain 24hr
in
rain mn
in
humidity
%
barometer
mb
20260903071546 69 152 0.0 0.0 0.00 0.22 0.00 93 1011.8
20260903070045 69 151 0.0 0.0 0.00 0.22 0.00 93 1011.8
20260903064553 69 152 0.0 0.0 0.00 0.22 0.00 93 1011.8
20260903063044 69 152 0.0 0.0 0.00 0.22 0.00 93 1011.8
20260903061542 70 152 0.0 1.0 0.00 0.22 0.00 93 1011.8
20260903060040 71 152 0.0 0.0 0.00 0.22 0.00 93 1011.8
20260903054539 71 152 0.0 0.0 0.00 0.22 0.00 93 1011.8
20260903053036 71 152 0.0 0.0 0.00 0.22 0.00 93 1011.8
20260903051535 71 152 0.0 1.0 0.00 0.22 0.00 93 1011.7
20260903050033 71 152 0.0 0.0 0.00 0.22 0.00 93 1011.6
20260903044530 72 152 0.0 0.0 0.00 0.22 0.00 93 1011.5
20260903043029 72 152 0.0 2.0 0.00 0.22 0.00 93 1011.5
20260903041526 72 152 0.0 1.0 0.00 0.22 0.00 93 1011.4
20260903040024 72 152 0.0 1.0 0.00 0.22 0.00 93 1011.1
20260903034521 72 152 1.0 2.0 0.00 0.22 0.22 93 1010.9
20260903033020 71 152 0.0 0.0 0.00 0.22 0.22 92 1010.7
20260903031519 72 152 0.0 1.0 0.00 0.22 0.22 92 1010.7
20260903030018 72 152 0.0 0.0 0.00 0.22 0.22 92 1010.7
20260903024516 73 152 0.0 0.0 0.00 0.22 0.22 92 1010.4
20260903023015 73 152 0.0 0.0 0.00 0.22 0.22 92 1010.8
20260903021515 73 152 0.0 1.0 0.00 0.22 0.22 92 1011.0
20260903020030 74 152 0.0 0.0 0.00 0.22 0.22 92 1011.2
20260903014511 74 152 0.0 1.0 0.00 0.22 0.22 92 1011.2
20260903013016 74 152 0.0 1.0 0.00 0.22 0.22 92 1011.1
20260903011513 74 152 0.0 0.0 0.00 0.22 0.22 91 1011.2
20260903010010 74 152 0.0 0.0 0.00 0.22 0.22 91 1010.8
20260903004509 74 152 0.0 0.0 0.00 0.22 0.22 90 1010.7
20260903003009 75 152 0.0 0.0 0.00 0.22 0.22 90 1010.6
20260903001508 75 152 0.0 0.0 0.00 0.22 0.22 90 1010.6
20260903000010 76 152 0.0 0.0 0.00 0.22 0.22 89 1010.6
20260902234507 76 152 0.0 1.0 0.00 0.22 0.22 89 1010.6
20260902233011 77 152 0.0 1.0 0.00 0.22 0.22 89 1010.6
20260902231507 77 152 0.0 1.0 0.00 0.22 0.22 89 1010.7
20260902230006 77 152 0.0 0.0 0.00 0.22 0.22 89 1010.5
20260902224506 76 152 0.0 2.0 0.00 0.22 0.22 88 1010.4
20260902223005 76 151 0.0 2.0 0.00 0.22 0.22 89 1010.4
20260902221504 76 151 1.0 6.0 0.02 0.22 0.22 88 1010.7
20260902220004 76 24 0.0 3.0 0.21 0.22 0.22 87 1010.1
20260902214503 77 28 1.0 8.0 0.21 0.22 0.22 86 1009.8
20260902213002 76 335 3.0 8.0 0.21 0.22 0.22 84 1009.4
20260902211600 78 279 6.0 23.0 0.19 0.20 0.20 78 1009.8
20260902210058 80 360 3.0 8.0 0.00 0.01 0.01 78 1010.3
20260902204634 80 343 4.0 8.0 0.00 0.01 0.01 79 1010.4
20260902203055 79 342 4.0 6.0 0.00 0.01 0.01 83 1010.5
20260902201555 78 15 1.0 4.0 0.00 0.01 0.01 84 1010.1
20260902200055 78 44 3.0 9.0 0.00 0.01 0.01 82 1010.5
20260902194552 79 11 6.0 12.0 0.00 0.01 0.01 77 1010.9
20260902193051 87 302 5.0 17.0 0.00 0.01 0.01 73 1011.1
20260902191551 88 240 9.0 16.0 0.00 0.01 0.01 69 1010.5
20260902190049 89 246 7.0 13.0 0.00 0.01 0.01 71 1010.4
20260902184545 88 243 7.0 13.0 0.00 0.01 0.01 72 1010.9
20260902183055 87 232 8.0 15.0 0.00 0.01 0.01 71 1010.9
20260902181542 86 223 5.0 12.0 0.00 0.01 0.01 72 1011.0
20260902180045 87 221 4.0 11.0 0.00 0.01 0.01 73 1011.0
20260902174538 86 228 4.0 11.0 0.00 0.01 0.01 70 1011.3
20260902173053 87 234 3.0 14.0 0.00 0.01 0.01 70 1011.3
20260902171538 87 214 2.0 11.0 0.00 0.01 0.01 71 1011.4
20260902170034 87 234 4.0 9.0 0.00 0.01 0.01 71 1011.5
20260902164531 86 234 2.0 7.0 0.00 0.01 0.01 71 1011.6
20260902163027 85 236 4.0 8.0 0.00 0.01 0.01 70 1011.9
20260902161523 84 258 0.0 7.0 0.00 0.01 0.01 73 1012.2
20260902160021 84 235 3.0 7.0 0.00 0.01 0.01 74 1012.3
20260902154518 83 292 1.0 7.0 0.00 0.01 0.01 78 1012.6
20260902153016 83 285 3.0 8.0 0.00 0.01 0.01 78 1012.6
20260902151513 82 240 4.0 9.0 0.00 0.01 0.01 78 1012.5
20260902150014 81 287 3.0 10.0 0.00 0.01 0.01 82 1012.6
20260902144510 81 282 2.0 10.0 0.00 0.01 0.01 82 1012.7
20260902143007 81 281 2.0 8.0 0.00 0.01 0.01 82 1012.4
20260902141505 81 270 2.0 7.0 0.00 0.01 0.01 82 1012.2
20260902140002 81 237 2.0 8.0 0.00 0.01 0.01 83 1012.2
20260902134600 80 245 5.0 8.0 0.00 0.01 0.01 84 1012.0
20260902133101 78 194 4.0 7.0 0.00 0.01 0.01 87 1011.9
20260902131551 77 238 5.0 11.0 0.00 0.01 0.01 88 1012.3
20260902130049 77 267 6.0 11.0 0.00 0.01 0.01 89 1012.2
20260902124550 76 243 6.0 11.0 0.00 0.01 0.01 90 1012.1
20260902123050 75 252 5.0 9.0 0.00 0.01 0.01 91 1012.1
20260902121547 75 231 5.0 11.0 0.00 0.01 0.01 91 1011.8
20260902120049 74 234 4.0 9.0 0.00 0.01 0.01 92 1012.0
20260902114544 74 236 4.0 8.0 0.00 0.01 0.01 92 1011.8
20260902113047 74 229 3.0 6.0 0.00 0.01 0.01 92 1011.7
20260902111543 74 217 3.0 5.0 0.00 0.01 0.01 92 1011.8
20260902110050 74 217 1.0 2.0 0.00 0.01 0.01 92 1011.7
20260902104555 74 217 0.0 3.0 0.00 0.01 0.01 92 1011.8
20260902103058 74 217 2.0 5.0 0.00 0.01 0.01 92 1012.1
20260902101540 74 216 3.0 6.0 0.00 0.01 0.01 92 1012.1
20260902100039 74 226 3.0 5.0 0.00 0.01 0.01 92 1012.2
20260902094538 74 227 3.0 5.0 0.00 0.01 0.01 92 1012.1
20260902093037 74 228 1.0 3.0 0.00 0.01 0.01 92 1011.9
20260902091537 74 228 0.0 1.0 0.01 0.01 0.01 91 1011.9
20260902090040 74 228 0.0 2.0 0.01 0.01 0.01 91 1011.8
20260902084540 74 228 0.0 2.0 0.01 0.01 0.01 91 1011.6
20260902083033 75 227 0.0 4.0 0.01 0.01 0.01 91 1011.5
20260902081532 74 228 2.0 5.0 0.00 0.00 0.00 91 1011.9
20260902080031 75 228 0.0 1.0 0.00 0.00 0.00 91 1011.5
20260902074530 75 227 0.0 3.0 0.00 0.00 0.00 91 1011.7
20260902073129 75 227 2.0 4.0 0.00 0.00 0.00 91 1011.7